EN

Hourly Weather Auraiya

Today, 28 November, Saturday

Time Temperature Precipitation Wind Pressure Humidity
00:00 +19°C° 0 mm 2 mps 752 mmHg 41%
01:00 +18°C° 0 mm 2 mps 751 mmHg 41%
02:00 +18°C° 0 mm 2 mps 751 mmHg 42%
03:00 +18°C° 0 mm 2 mps 751 mmHg 42%
04:00 +17°C° 0 mm 2 mps 751 mmHg 43%
05:00 +17°C° 0 mm 2 mps 751 mmHg 44%
06:00 +18°C° 0 mm 2 mps 752 mmHg 44%
07:00 +19°C° 0 mm 2 mps 752 mmHg 44%
08:00 +19°C° 0 mm 2 mps 753 mmHg 43%
09:00 +21°C° 0 mm 2 mps 753 mmHg 38%
10:00 +25°C° 0 mm 2 mps 753 mmHg 34%
11:00 +27°C° 0 mm 2 mps 753 mmHg 29%
12:00 +27°C° 0 mm 2 mps 752 mmHg 27%
13:00 +28°C° 0 mm 2 mps 751 mmHg 25%
14:00 +28°C° 0 mm 3 mps 750 mmHg 24%
15:00 +27°C° 0 mm 2 mps 750 mmHg 27%
16:00 +25°C° 0 mm 2 mps 750 mmHg 30%
17:00 +24°C° 0 mm 1 mps 749 mmHg 33%
18:00 +23°C° 0 mm 1 mps 750 mmHg 34%
19:00 +22°C° 0 mm 1 mps 750 mmHg 36%
20:00 +21°C° 0 mm 1 mps 750 mmHg 37%
21:00 +21°C° 0 mm 1 mps 750 mmHg 38%
22:00 +21°C° 0 mm 1 mps 750 mmHg 40%
23:00 +20°C° 0 mm 1 mps 750 mmHg 41%

Tomorrow, 29 November, Sunday

Time Temperature Precipitation Wind Pressure Humidity
00:00 +19°C° 0 mm 2 mps 750 mmHg 42%
01:00 +18°C° 0 mm 2 mps 750 mmHg 42%
02:00 +18°C° 0 mm 2 mps 750 mmHg 43%
03:00 +18°C° 0 mm 2 mps 750 mmHg 44%
04:00 +17°C° 0 mm 2 mps 750 mmHg 45%
05:00 +18°C° 0 mm 1 mps 750 mmHg 46%
06:00 +19°C° 0 mm 1 mps 751 mmHg 45%
07:00 +20°C° 0 mm 1 mps 751 mmHg 44%
08:00 +20°C° 0 mm 1 mps 752 mmHg 43%
09:00 +22°C° 0 mm 1 mps 752 mmHg 38%
10:00 +24°C° 0 mm 1 mps 752 mmHg 34%
11:00 +26°C° 0 mm 1 mps 752 mmHg 30%
12:00 +27°C° 0 mm 1 mps 751 mmHg 28%
13:00 +27°C° 0 mm 1 mps 750 mmHg 26%
14:00 +28°C° 0 mm 1 mps 749 mmHg 25%
15:00 +27°C° 0 mm 1 mps 749 mmHg 27%
16:00 +25°C° 0 mm 1 mps 749 mmHg 30%
17:00 +22°C° 0 mm 0 mps 749 mmHg 32%
18:00 +21°C° 0 mm 0 mps 749 mmHg 34%
19:00 +22°C° 0 mm 1 mps 749 mmHg 35%
20:00 +22°C° 0 mm 1 mps 750 mmHg 36%
21:00 +21°C° 0 mm 1 mps 750 mmHg 37%
22:00 +21°C° 0 mm 1 mps 750 mmHg 39%
23:00 +20°C° 0 mm 1 mps 750 mmHg 40%

Day after tomorrow, 30 November, Monday

Time Temperature Precipitation Wind Pressure Humidity
00:00 +20°C° 0 mm 1 mps 749 mmHg 41%
01:00 +19°C° 0 mm 1 mps 749 mmHg 41%
02:00 +19°C° 0 mm 1 mps 749 mmHg 42%
03:00 +18°C° 0 mm 1 mps 749 mmHg 42%
04:00 +18°C° 0 mm 1 mps 749 mmHg 43%
05:00 +18°C° 0 mm 1 mps 749 mmHg 43%
06:00 +18°C° 0 mm 1 mps 750 mmHg 42%
07:00 +19°C° 0 mm 1 mps 750 mmHg 41%
08:00 +20°C° 0 mm 1 mps 751 mmHg 39%
09:00 +22°C° 0 mm 1 mps 751 mmHg 35%
10:00 +24°C° 0 mm 1 mps 751 mmHg 30%
11:00 +26°C° 0 mm 1 mps 751 mmHg 26%
12:00 +27°C° 0 mm 1 mps 750 mmHg 24%
13:00 +28°C° 0 mm 1 mps 749 mmHg 22%
14:00 +28°C° 0 mm 1 mps 749 mmHg 19%
15:00 +27°C° 0 mm 1 mps 748 mmHg 22%
16:00 +25°C° 0 mm 1 mps 748 mmHg 24%
17:00 +22°C° 0 mm 0 mps 748 mmHg 27%
18:00 +21°C° 0 mm 0 mps 749 mmHg 28%
19:00 +20°C° 0 mm 0 mps 749 mmHg 28%
20:00 +20°C° 0 mm 0 mps 750 mmHg 29%
21:00 +19°C° 0 mm 0 mps 750 mmHg 30%
22:00 +21°C° 0 mm 1 mps 750 mmHg 30%
23:00 +20°C° 0 mm 1 mps 750 mmHg 31%

1 December, Tuesday

Time Temperature Precipitation Wind Pressure Humidity
00:00 +18°C° 0 mm 0 mps 750 mmHg 31%
01:00 +18°C° 0 mm 0 mps 749 mmHg 32%
02:00 +17°C° 0 mm 0 mps 749 mmHg 32%
03:00 +17°C° 0 mm 0 mps 749 mmHg 32%
04:00 +17°C° 0 mm 0 mps 749 mmHg 32%
05:00 +18°C° 0 mm 1 mps 749 mmHg 32%
06:00 +19°C° 0 mm 1 mps 750 mmHg 32%
07:00 +20°C° 0 mm 1 mps 751 mmHg 31%
08:00 +21°C° 0 mm 1 mps 751 mmHg 31%
09:00 +23°C° 0 mm 1 mps 751 mmHg 28%
10:00 +25°C° 0 mm 1 mps 751 mmHg 25%
11:00 +27°C° 0 mm 1 mps 751 mmHg 22%
12:00 +28°C° 0 mm 1 mps 750 mmHg 20%
13:00 +28°C° 0 mm 1 mps 749 mmHg 19%
14:00 +29°C° 0 mm 1 mps 749 mmHg 17%
15:00 +27°C° 0 mm 1 mps 748 mmHg 20%
16:00 +24°C° 0 mm 0 mps 748 mmHg 22%
17:00 +22°C° 0 mm 0 mps 748 mmHg 24%
18:00 +21°C° 0 mm 0 mps 749 mmHg 25%
19:00 +21°C° 0 mm 0 mps 749 mmHg 25%
20:00 +20°C° 0 mm 0 mps 749 mmHg 26%
21:00 +20°C° 0 mm 0 mps 749 mmHg 27%
22:00 +19°C° 0 mm 0 mps 749 mmHg 27%
23:00 +19°C° 0 mm 0 mps 749 mmHg 27%

2 December, Wednesday

Time Temperature Precipitation Wind Pressure Humidity
00:00 +20°C° 0 mm 1 mps 749 mmHg 28%
01:00 +20°C° 0 mm 1 mps 749 mmHg 28%
02:00 +20°C° 0 mm 1 mps 748 mmHg 29%
03:00 +19°C° 0 mm 1 mps 748 mmHg 30%
04:00 +19°C° 0 mm 1 mps 748 mmHg 30%
05:00 +18°C° 0 mm 2 mps 748 mmHg 31%
06:00 +18°C° 0 mm 2 mps 749 mmHg 31%
07:00 +19°C° 0 mm 2 mps 749 mmHg 32%
08:00 +20°C° 0 mm 2 mps 750 mmHg 32%
09:00 +23°C° 0 mm 2 mps 750 mmHg 29%
10:00 +25°C° 0 mm 2 mps 750 mmHg 25%
11:00 +27°C° 0 mm 2 mps 749 mmHg 22%
12:00 +28°C° 0 mm 3 mps 749 mmHg 20%
13:00 +29°C° 0 mm 3 mps 748 mmHg 19%
14:00 +30°C° 0 mm 3 mps 747 mmHg 18%
15:00 +28°C° 0 mm 2 mps 746 mmHg 21%
16:00 +26°C° 0 mm 2 mps 746 mmHg 23%
17:00 +25°C° 0 mm 1 mps 746 mmHg 26%
18:00 +24°C° 0 mm 1 mps 746 mmHg 27%
19:00 +23°C° 0 mm 1 mps 746 mmHg 28%
20:00 +22°C° 0 mm 1 mps 747 mmHg 29%
21:00 +22°C° 0 mm 1 mps 747 mmHg 29%
22:00 +22°C° 0 mm 1 mps 747 mmHg 30%
23:00 +21°C° 0 mm 1 mps 747 mmHg 30%

3 December, Thursday

Time Temperature Precipitation Wind Pressure Humidity
00:00 +21°C° 0 mm 1 mps 746 mmHg 31%
01:00 +20°C° 0 mm 1 mps 746 mmHg 32%
02:00 +20°C° 0 mm 1 mps 746 mmHg 33%
03:00 +19°C° 0 mm 1 mps 746 mmHg 34%
04:00 +19°C° 0 mm 1 mps 746 mmHg 36%
05:00 +18°C° 0 mm 1 mps 746 mmHg 37%
06:00 +19°C° 0 mm 1 mps 747 mmHg 37%
07:00 +20°C° 0 mm 1 mps 748 mmHg 37%
08:00 +21°C° 0 mm 1 mps 748 mmHg 37%
09:00 +23°C° 0 mm 1 mps 748 mmHg 33%
10:00 +25°C° 0 mm 1 mps 748 mmHg 28%
11:00 +28°C° 0 mm 2 mps 749 mmHg 24%
12:00 +28°C° 0 mm 2 mps 748 mmHg 22%
13:00 +29°C° 0 mm 2 mps 747 mmHg 20%
14:00 +30°C° 0 mm 2 mps 746 mmHg 19%
15:00 +28°C° 0 mm 1 mps 746 mmHg 21%
16:00 +26°C° 0 mm 1 mps 746 mmHg 23%
17:00 +23°C° 0 mm 0 mps 746 mmHg 26%
18:00 +22°C° 0 mm 0 mps 746 mmHg 26%
19:00 +21°C° 0 mm 0 mps 747 mmHg 27%
20:00 +20°C° 0 mm 0 mps 747 mmHg 28%
21:00 +20°C° 0 mm 0 mps 747 mmHg 28%
22:00 +22°C° 0 mm 1 mps 747 mmHg 29%
23:00 +21°C° 0 mm 1 mps 747 mmHg 30%
Show more